Home   Weather   Guayaquil   Past weeks
Flag for Ecuador

Past Weather in Guayaquil, Ecuador — Yesterday and Last 2 Weeks

Now
79 °F

Broken clouds.


Feels Like: 81 °F
Forecast: 86 / 71 °F
Wind: 8 mph from South

Location: Guayaquil / Simon Bolivar

Current Time: Oct 15, 2019 at 7:01:59 pm

Latest Report: Oct 15, 2019 at 6:00 pm


Visibility: N/A

Pressure: 29.83 "Hg

Humidity: 74%

Dew Point: 70 °F

Location of GuayaquilLocation

Past Weather in Guayaquil — Graph

°F

Guayaquil Temperature Yesterday

Maximum temperature yesterday: 86 °F (at 2:00 pm)
Minimum temperature yesterday: 72 °F (at 12:00 am)
Average temperature yesterday: 77 °F

High & Low Weather Summary for the Past Weeks

 TemperatureHumidityPressure
High90 °F (Oct 1, 3:00 pm)88% (Oct 2, 4:00 am)29.95 "Hg (Oct 2, 4:00 am)
Low70 °F (Oct 2, 4:00 am)31% (Oct 8, 3:00 pm)29.71 "Hg (Oct 1, 3:00 pm)
Average77 °F72%29.85 "Hg
* Reported Sep 30 5:00 pm — Oct 15 5:00 pm, Guayaquil. Weather by CustomWeather, © 2019

Note: Actual official high and low records may vary slightly from our data, if they occured in-between our weather recording intervals... More about our weather records

Advertising

Guayaquil Weather History for the Previous 24 Hours

Scroll right to see more
 ConditionsComfort  
Time TempWeatherWind HumidityBarometerVisibility
5:00 pm
Tue, Oct 15
81 °FBroken clouds.8 mph66%29.80 "HgN/A
4:00 pm82 °FScattered clouds.8 mph62%29.80 "HgN/A
3:00 pm82 °FScattered clouds.3 mph62%29.83 "HgN/A
2:00 pm81 °FMostly cloudy.5 mph66%29.86 "HgN/A
1:00 pm79 °FMostly cloudy.3 mph70%29.89 "HgN/A
12:00 pm81 °FBroken clouds.6 mph66%29.92 "HgN/A
11:00 am79 °FPartly sunny.7 mph70%29.92 "HgN/A
10:00 am79 °FPartly sunny.10 mph70%29.95 "HgN/A
9:00 am77 °FPartly sunny.6 mph69%29.95 "HgN/A
8:00 am73 °FPartly sunny.10 mph78%29.92 "HgN/A
7:00 am73 °FPartly sunny.7 mph78%29.92 "HgN/A
6:00 am72 °FPartly sunny.10 mph83%29.89 "HgN/A
5:00 am72 °FPassing clouds.8 mph83%29.89 "HgN/A
4:00 am72 °FPassing clouds.9 mph83%29.89 "HgN/A
3:00 am72 °FPassing clouds.9 mph83%29.89 "HgN/A
2:00 am72 °FPassing clouds.10 mph83%29.89 "HgN/A
1:00 am72 °FPassing clouds.10 mph83%29.89 "HgN/A
12:00 am73 °FPassing clouds.10 mph78%29.92 "HgN/A
11:00 pm
Mon, Oct 14
72 °FPassing clouds.12 mph83%29.92 "HgN/A
10:00 pm73 °FPassing clouds.12 mph78%29.92 "HgN/A
9:00 pm75 °FPassing clouds.12 mph74%29.89 "HgN/A
8:00 pm77 °FPassing clouds.14 mph69%29.86 "HgN/A
7:00 pm77 °FPassing clouds.15 mph74%29.83 "HgN/A
Weather by CustomWeather, © 2019

See weather overview